Weather History for Cody, WY

Change the Weather History Date:

Saturday, December 8, 2012

  Actual Average Record
Temperature  
Mean Temperature 19 °F -  
Max Temperature 30 °F 37 °F 63 °F (1939)
Min Temperature 8 °F 14 °F -32 °F (1972)
Degree Days  
Heating Degree Days 46    
Moisture  
Dew Point 14 °F    
Average Humidity 77    
Maximum Humidity 100    
Minimum Humidity 37    
Precipitation  
Precipitation 0.00 in - - ()
Sea Level Pressure  
Sea Level Pressure 29.77 in    
Wind  
Wind Speed 9 mph (North)    
Max Wind Speed 23 mph    
Max Gust Speed 30 mph    
Visibility 9 miles    
Events      
Averages and records for this station are not official NWS values.
T = Trace of Precipitation, MM = Missing Value Source: NWS Daily Summary

Daily Weather History Graph

Daily Weather History Graph

Search for Another Location

Airport:

Trip Planner

Search our weather history database for the weather conditions in past years. The results will help you decide how hot, cold, wet, or windy it might be!

Date:

Astronomy

Dec. 08, 2012 Rise Set
Actual Time 7:40 AM MST 4:36 PM MST
Civil Twilight 7:07 AM MST 5:09 PM MST
Nautical Twilight 6:30 AM MST 5:46 PM MST
Astronomical Twilight 5:55 AM MST 6:21 PM MST
Moon 1:58 AM MST (12/8) 1:17 PM MST (12/8)
Length of Visible Light 10h 02m
Length of Day
8h 55m
Waning Crescent, 27% of the Moon is Illuminated
Dec 8
Waning Crescent
Dec 13
New
Dec 19
First Quarter
Dec 28
Full
Jan 4
Last Quarter

Hourly Weather History & Observations

Time (MST) Temp. Windchill Dew Point Humidity Pressure Visibility Wind Dir Wind Speed Gust Speed Precip Events Conditions
12:15 AM 30.2 °F 21.9 °F 19.4 °F 64% 29.64 in 10.0 mi WSW 9.2 mph 17.3 mph N/A   Partly Cloudy
12:35 AM 30.2 °F 21.9 °F 19.4 °F 64% 29.63 in 10.0 mi WSW 9.2 mph - N/A   Partly Cloudy
12:55 AM 30.2 °F - 19.4 °F 64% 29.63 in 10.0 mi Calm Calm - N/A   Mostly Cloudy
1:15 AM 26.6 °F 21.2 °F 19.4 °F 74% 29.62 in 10.0 mi NNE 4.6 mph - N/A   Mostly Cloudy
1:35 AM 26.6 °F 21.2 °F 19.4 °F 74% 29.61 in 10.0 mi SSE 4.6 mph - N/A   Mostly Cloudy
1:55 AM 26.6 °F 17.5 °F 19.4 °F 74% 29.60 in 10.0 mi SE 9.2 mph - N/A   Scattered Clouds
2:15 AM 28.4 °F 22.2 °F 21.2 °F 74% 29.60 in 10.0 mi SE 5.8 mph - N/A   Mostly Cloudy
2:35 AM 26.6 °F 18.2 °F 19.4 °F 74% 29.60 in 10.0 mi SE 8.1 mph - N/A   Mostly Cloudy
3:35 AM 24.8 °F - 17.6 °F 74% 29.58 in 10.0 mi Calm Calm - N/A   Scattered Clouds
3:55 AM 24.8 °F 17.9 °F 17.6 °F 74% 29.56 in 10.0 mi SSW 5.8 mph - N/A   Scattered Clouds
4:15 AM 28.4 °F - 19.4 °F 69% 29.55 in 10.0 mi Calm Calm - N/A   Partly Cloudy
4:35 AM 24.8 °F 16.9 °F 17.6 °F 74% 29.55 in 10.0 mi ENE 6.9 mph - N/A   Clear
4:55 AM 26.6 °F 19.1 °F 17.6 °F 69% 29.57 in 10.0 mi NE 6.9 mph - N/A   Clear
5:16 AM 24.8 °F 10.7 °F 21.2 °F 86% 29.57 in 10.0 mi NNE 19.6 mph - N/A   Mostly Cloudy
5:35 AM 24.8 °F 12.4 °F 21.2 °F 86% 29.58 in 10.0 mi NNE 15.0 mph 21.9 mph N/A   Overcast
5:55 AM 24.8 °F 12.9 °F 21.2 °F 86% 29.58 in 9.0 mi NNE 13.8 mph - N/A   Mostly Cloudy
6:15 AM 24.8 °F 13.4 °F 21.2 °F 86% 29.59 in 2.5 mi NE 12.7 mph - N/A   Overcast
6:35 AM 24.8 °F 15.3 °F 23.0 °F 93% 29.61 in 2.5 mi North 9.2 mph - N/A   Overcast
6:55 AM 24.8 °F 16.9 °F 23.0 °F 93% 29.62 in 0.8 mi North 6.9 mph - N/A   Overcast
7:15 AM 23.0 °F 17.0 °F 23.0 °F 100% 29.62 in 1.5 mi NE 4.6 mph - N/A   Overcast
7:35 AM 23.0 °F 17.0 °F 21.2 °F 93% 29.64 in 10.0 mi South 4.6 mph - N/A   Overcast
7:55 AM 21.2 °F - 21.2 °F 100% 29.65 in 10.0 mi Calm Calm - N/A   Overcast
8:15 AM 21.2 °F 16.4 °F 19.4 °F 93% 29.65 in 10.0 mi NE 3.5 mph - N/A   Mostly Cloudy
8:35 AM 24.8 °F 14.6 °F 17.6 °F 74% 29.67 in 10.0 mi WNW 10.4 mph - N/A   Mostly Cloudy
8:55 AM 24.8 °F 12.4 °F 10.4 °F 54% 29.66 in 10.0 mi SW 15.0 mph - N/A   Mostly Cloudy
9:15 AM 24.8 °F 14.0 °F 8.6 °F 50% 29.66 in 10.0 mi WSW 11.5 mph 23.0 mph N/A   Scattered Clouds
9:35 AM 26.6 °F 15.7 °F 6.8 °F 43% 29.66 in 10.0 mi WSW 12.7 mph 21.9 mph N/A   Clear
9:55 AM 26.6 °F 15.2 °F 6.8 °F 43% 29.67 in 10.0 mi West 13.8 mph 20.7 mph N/A   Clear
10:15 AM 26.6 °F 17.5 °F 3.2 °F 37% 29.68 in 10.0 mi WNW 9.2 mph 19.6 mph N/A   Clear
10:35 AM 26.6 °F 15.2 °F 3.2 °F 37% 29.69 in 10.0 mi WNW 13.8 mph 20.7 mph N/A   Clear
11:15 AM 26.6 °F 16.2 °F 5.0 °F 40% 29.70 in 10.0 mi West 11.5 mph 18.4 mph N/A   Mostly Cloudy
11:35 AM 26.6 °F 18.2 °F 6.8 °F 43% 29.71 in 10.0 mi West 8.1 mph - N/A   Overcast
11:55 AM 26.6 °F 15.7 °F 6.8 °F 43% 29.71 in 10.0 mi West 12.7 mph 16.1 mph N/A   Overcast
12:15 PM 26.6 °F 14.7 °F 3.2 °F 37% 29.72 in 10.0 mi NW 15.0 mph 19.6 mph N/A   Overcast
12:55 PM 26.6 °F 15.2 °F 5.0 °F 40% 29.74 in 10.0 mi NW 13.8 mph 19.6 mph N/A   Overcast
1:15 PM 26.6 °F 12.0 °F 5.0 °F 40% 29.76 in 10.0 mi North 23.0 mph 29.9 mph N/A   Overcast
1:35 PM 19.4 °F 5.0 °F 17.6 °F 93% 29.77 in 8.0 mi NNE 16.1 mph - N/A   Overcast
1:55 PM 19.4 °F 5.5 °F 15.8 °F 86% 29.79 in 9.0 mi North 15.0 mph - N/A   Overcast
2:15 PM 19.4 °F 7.9 °F 17.6 °F 93% 29.80 in 10.0 mi North 10.4 mph - N/A   Overcast
2:35 PM 19.4 °F 9.5 °F 17.6 °F 93% 29.82 in 10.0 mi North 8.1 mph - N/A   Overcast
3:15 PM 19.4 °F 6.6 °F 17.6 °F 93% 29.84 in 5.0 mi North 12.7 mph - N/A   Overcast
3:35 PM 19.4 °F 7.2 °F 17.6 °F 93% 29.86 in 5.0 mi North 11.5 mph - N/A   Overcast
3:55 PM 19.4 °F 10.4 °F 17.6 °F 93% 29.87 in 4.0 mi North 6.9 mph - N/A   Overcast
4:15 PM 19.4 °F 9.5 °F 17.6 °F 93% 29.88 in 1.5 mi NNE 8.1 mph - N/A   Overcast
4:35 PM 19.4 °F 8.6 °F 19.4 °F 100% 29.90 in 1.8 mi NNE 9.2 mph - N/A   Overcast
4:55 PM 19.4 °F 7.2 °F 17.6 °F 93% 29.90 in 10.0 mi North 11.5 mph - N/A   Overcast
5:15 PM 19.4 °F 7.9 °F 15.8 °F 86% 29.91 in 10.0 mi North 10.4 mph - N/A   Overcast
5:35 PM 19.4 °F 6.6 °F 15.8 °F 86% 29.93 in 10.0 mi NNE 12.7 mph - N/A   Overcast
5:55 PM 17.6 °F 5.0 °F 15.8 °F 93% 29.94 in 5.0 mi NNE 11.5 mph - N/A   Overcast
6:15 PM 15.8 °F 0.9 °F 14.0 °F 93% 29.96 in 3.0 mi NNE 15.0 mph - N/A   Overcast
6:35 PM 15.8 °F 1.4 °F 14.0 °F 93% 29.97 in 4.0 mi North 13.8 mph 19.6 mph N/A   Overcast
6:55 PM 14.0 °F -0.2 °F 10.4 °F 86% 29.98 in 10.0 mi North 12.7 mph - N/A   Overcast
7:35 PM 12.2 °F -1.8 °F 8.6 °F 85% 30.00 in 10.0 mi North 11.5 mph - N/A   Scattered Clouds
7:55 PM 12.2 °F -3.1 °F 8.6 °F 85% 30.00 in 10.0 mi North 13.8 mph 19.6 mph N/A   Clear
8:15 PM 12.2 °F -2.5 °F 8.6 °F 85% 30.01 in 10.0 mi North 12.7 mph 17.3 mph N/A   Mostly Cloudy
8:35 PM 12.2 °F -3.1 °F 8.6 °F 85% 30.01 in 10.0 mi North 13.8 mph - N/A   Overcast
8:55 PM 10.4 °F -5.4 °F 6.8 °F 85% 30.02 in 10.0 mi NNE 13.8 mph - N/A   Overcast
9:35 PM 10.4 °F -5.4 °F 6.8 °F 85% 30.04 in 10.0 mi North 13.8 mph - N/A   Overcast
9:55 PM 8.6 °F -7.0 °F 6.8 °F 92% 30.05 in 10.0 mi North 12.7 mph 19.6 mph N/A   Overcast
10:35 PM 8.6 °F -2.6 °F 6.8 °F 92% 30.07 in 10.0 mi North 6.9 mph - N/A   Overcast
10:55 PM 8.6 °F -5.5 °F 8.6 °F 100% 30.07 in 10.0 mi NNE 10.4 mph - N/A   Overcast
11:15 PM 8.6 °F -2.6 °F 6.8 °F 92% 30.07 in 10.0 mi North 6.9 mph - N/A   Overcast
11:35 PM 10.4 °F 0.8 °F 6.8 °F 85% 30.08 in 10.0 mi North 5.8 mph - N/A   Overcast
11:55 PM 10.4 °F 2.2 °F 6.8 °F 85% 30.09 in 10.0 mi WNW 4.6 mph - N/A   Overcast